Tracking 19634 objects as of 21-May-2019
HD Live streaming from Space Station
objects crossing your sky now

SUPERBIRD A

Track SUPERBIRD A now!
SUPERBIRD A is classified as:


NORAD ID: 20040
Int'l Code: 1989-041A
Perigee: 35,904.9 km
Apogee: 35,980.0 km
Inclination: 14.9 °
Period: 1,443.7 minutes
Semi major axis: 42313 km
RCS: 4.409 m2 (large)
Launch date: June 5, 1989
Source: Japan (JPN)
Launch site: FRENCH GUIANA (FRGUI)
aabbcc
Your satellite tracking list
Your tracking list is empty




NASA's NSSDC Master Catalog

Two Line Element Set (TLE):
1 20040U 89041A   19141.25051924  .00000082  00000-0  00000+0 0  9991
2 20040  14.8631 353.3201 0008866  15.6035 356.7596  0.99743647108678
Source of the keplerian elements: AFSPC